Powrót do katalogu

STARLINK-37068

AktywnyŁącznośćVLEO
NORAD 68085·PAYLOAD·🇺🇸 United States

Wystrzelony Mar 4, 2026 z Vandenberg Space Force Base

Loading…

Następne Przeloty (najbliższe 24 godziny)

TLE

ŚwieżeSource: CelesTrak SupGP

Epoka: Sep 15, 2026, 03:41 UTC

1 68085C 26042S   26258.15395833  .00065398  00000+0  19315-2 0  2580
2 68085  53.1589  12.8402 0001105  88.4029 318.5014 15.34369517    12

Śledź STARLINK-37068 w czasie rzeczywistym z AllMySat

Download on the App Store